QPF
0.00 0.00 0.00 0.00 0.00 0.00 0.00 0.00 0.00 0.00 0.00 0.00 0.00 0.00 0.00 0.00 0.00 0.00 0.00 0.00 0.01 0.01 0.01 0.01 0.02 0.01 0.01 0.01 0.02 0.02 0.02 0.02 0.02 0.02 0.01 0.01 0.01 0.02 0.02 0.03 0.04 0.04 0.03 0.02
0.00 0.00 0.00 0.00 0.00 0.00 0.00 0.00 0.00 0.00 0.00 0.00 0.00 0.00 0.00 0.00 0.00 0.00 0.00 0.00 0.00 0.01 0.01 0.01 0.01 0.01 0.01 0.01 0.01 0.02 0.02 0.02 0.02 0.01 0.01 0.01 0.01 0.02 0.03 0.03 0.04 0.04 0.04 0.02
0.01 0.00 0.00 0.01 0.00 0.00 0.00 0.00 0.00 0.00 0.00 0.00 0.00 0.00 0.00 0.00 0.00 0.00 0.00 0.00 0.01 0.01 0.01 0.01 0.01 0.01 0.01 0.01 0.01 0.01 0.01 0.01 0.01 0.01 0.01 0.00 0.01 0.01 0.01 0.02 0.02 0.02 0.02 0.02
0.01 0.00 0.00 0.01 0.00 0.00 0.00 0.00 0.00 0.00 0.00 0.00 0.00 0.00 0.00 0.00 0.00 0.00 0.00 0.00 0.01 0.01 0.01 0.01 0.01 0.01 0.01 0.01 0.01 0.01 0.01 0.00 0.00 0.00 0.00 0.00 0.00 0.00 0.00 0.01 0.01 0.01 0.01 0.01
0.01 0.00 0.00 0.01 0.00 0.00 0.00 0.00 0.00 0.00 0.00 0.00 0.00 0.00 0.00 0.00 0.00 0.00 0.00 0.00 0.01 0.01 0.01 0.01 0.01 0.01 0.01 0.01 0.01 0.01 0.00 0.00 0.00 0.00 0.00 0.00 0.00 0.00 0.00 0.00 0.00 0.00 0.00 0.00
0.02 0.01 0.00 0.00 0.00 0.00 0.00 0.00 0.00 0.00 0.00 0.00 0.00 0.00 0.00 0.00 0.00 0.00 0.00 0.00 0.01 0.01 0.01 0.01 0.01 0.01 0.01 0.01 0.01 0.01 0.00 0.00 0.00 0.00 0.00 0.00 0.00 0.00 0.00 0.00 0.00 0.00 0.00 0.01
0.01 0.01 0.00 0.00 0.00 0.00 0.00 0.00 0.00 0.00 0.00 0.00 0.00 0.00 0.00 0.00 0.00 0.00 0.00 0.00 0.00 0.01 0.01 0.01 0.01 0.01 0.01 0.01 0.01 0.00 0.00 0.00 0.00 0.00 0.00 0.00 0.00 0.00 0.01 0.01 0.00 0.00 0.01 0.01
0.01 0.01 0.00 0.00 0.00 0.00 0.00 0.00 0.00 0.00 0.00 0.00 0.00 0.00 0.00 0.00 0.00 0.00 0.00 0.00 0.00 0.01 0.01 0.01 0.00 0.00 0.01 0.00 0.00 0.00 0.00 0.00 0.00 0.01 0.01 0.01 0.01 0.01 0.01 0.01 0.01 0.01 0.00 0.01
0.00 0.00 0.00 0.00 0.00 0.00 0.00 0.00 0.00 0.00 0.00 0.00 0.00 0.00 0.00 0.00 0.00 0.00 0.00 0.00 0.00 0.01 0.00 0.00 0.00 0.00 0.00 0.00 0.00 0.00 0.00 0.00 0.00 0.00 0.01 0.01 0.01 0.02 0.02 0.02 0.02 0.02 0.02 0.01
0.00 0.00 0.00 0.00 0.00 0.00 0.00 0.00 0.00 0.00 0.00 0.00 0.00 0.00 0.00 0.00 0.00 0.00 0.00 0.00 0.00 0.01 0.00 0.00 0.00 0.00 0.00 0.00 0.00 0.00 0.00 0.00 0.00 0.00 0.00 0.00 0.01 0.01 0.01 0.02 0.02 0.02 0.02 0.01
0.00 0.00 0.00 0.00 0.00 0.00 0.00 0.00 0.00 0.00 0.00 0.00 0.00 0.00 0.00 0.00 0.00 0.00 0.00 0.00 0.00 0.01 0.00 0.00 0.00 0.00 0.00 0.00 0.00 0.00 0.00 0.00 0.00 0.00 0.00 0.00 0.00 0.00 0.00 0.01 0.01 0.01 0.01 0.01
0.00 0.00 0.00 0.00 0.00 0.00 0.00 0.00 0.00 0.00 0.00 0.00 0.00 0.00 0.00 0.00 0.00 0.00 0.00 0.00 0.00 0.01 0.00 0.00 0.00 0.00 0.00 0.00 0.00 0.00 0.00 0.00 0.00 0.00 0.00 0.00 0.00 0.01 0.01 0.00 0.00 0.00 0.00 0.00
0.00 0.00 0.00 0.00 0.00 0.00 0.00 0.00 0.00 0.00 0.00 0.00 0.00 0.00 0.00 0.00 0.00 0.00 0.00 0.00 0.00 0.00 0.00 0.00 0.00 0.00 0.00 0.00 0.01 0.01 0.00 0.00 0.00 0.00 0.00 0.00 0.00 0.01 0.01 0.01 0.01 0.00 0.00 0.00
0.00 0.00 0.00 0.00 0.00 0.00 0.00 0.00 0.00 0.00 0.00 0.00 0.00 0.00 0.00 0.00 0.00 0.00 0.00 0.00 0.00 0.00 0.00 0.00 0.00 0.00 0.00 0.00 0.00 0.00 0.00 0.00 0.00 0.00 0.01 0.01 0.01 0.01 0.01 0.01 0.00 0.00 0.00 0.00
0.00 0.00 0.00 0.00 0.00 0.00 0.00 0.00 0.00 0.00 0.00 0.00 0.00 0.00 0.00 0.00 0.00 0.00 0.00 0.00 0.00 0.00 0.01 0.00 0.00 0.00 0.00 0.00 0.00 0.00 0.00 0.00 0.00 0.01 0.01 0.01 0.01 0.01 0.01 0.00 0.00 0.00 0.00 0.00
0.00 0.00 0.00 0.00 0.00 0.00 0.00 0.00 0.00 0.00 0.00 0.00 0.00 0.00 0.00 0.00 0.00 0.00 0.00 0.00 0.01 0.01 0.01 0.01 0.01 0.00 0.00 0.00 0.00 0.00 0.00 0.01 0.01 0.02 0.02 0.01 0.01 0.00 0.00 0.00 0.00 0.00 0.00 0.00
0.00 0.00 0.00 0.00 0.00 0.00 0.00 0.00 0.00 0.00 0.00 0.00 0.00 0.00 0.00 0.00 0.00 0.00 0.00 0.00 0.00 0.00 0.00 0.01 0.01 0.01 0.01 0.00 0.00 0.01 0.01 0.01 0.02 0.01 0.01 0.01 0.00 0.00 0.00 0.00 0.00 0.00 0.00 0.00
0.00 0.00 0.00 0.00 0.00 0.00 0.00 0.00 0.00 0.00 0.00 0.00 0.00 0.00 0.00 0.00 0.00 0.00 0.00 0.00 0.00 0.01 0.01 0.01 0.01 0.01 0.01 0.00 0.01 0.01 0.01 0.01 0.01 0.01 0.00 0.00 0.00 0.00 0.00 0.00 0.00 0.00 0.00 0.00
0.00 0.00 0.00 0.00 0.00 0.00 0.00 0.00 0.00 0.00 0.00 0.00 0.00 0.00 0.00 0.00 0.00 0.00 0.00 0.00 0.00 0.01 0.01 0.01 0.01 0.00 0.00 0.01 0.01 0.01 0.01 0.01 0.01 0.01 0.01 0.00 0.00 0.00 0.00 0.00 0.00 0.00 0.00 0.00
0.00 0.00 0.00 0.00 0.00 0.00 0.00 0.00 0.00 0.00 0.00 0.00 0.00 0.00 0.00 0.00 0.00 0.00 0.00 0.00 0.00 0.00 0.00 0.00 0.00 0.00 0.00 0.01 0.01 0.01 0.01 0.01 0.01 0.00 0.00 0.00 0.00 0.00 0.00 0.00 0.00 0.00 0.00 0.00
0.00 0.00 0.00 0.00 0.00 0.00 0.00 0.00 0.00 0.00 0.00 0.00 0.00 0.00 0.00 0.00 0.00 0.00 0.00 0.00 0.00 0.00 0.00 0.00 0.00 0.00 0.00 0.01 0.01 0.01 0.01 0.00 0.00 0.00 0.00 0.00 0.00 0.00 0.00 0.00 0.00 0.00 0.00 0.00
0.00 0.00 0.00 0.00 0.00 0.00 0.00 0.00 0.00 0.00 0.00 0.00 0.01 0.01 0.01 0.00 0.00 0.00 0.00 0.00 0.00 0.00 0.00 0.00 0.00 0.00 0.00 0.00 0.01 0.01 0.01 0.00 0.00 0.00 0.00 0.00 0.00 0.00 0.00 0.00 0.00 0.00 0.00 0.00
0.00 0.00 0.00 0.00 0.00 0.00 0.00 0.00 0.00 0.01 0.01 0.01 0.00 0.00 0.00 0.00 0.00 0.00 0.00 0.00 0.00 0.00 0.00 0.00 0.00 0.00 0.00 0.01 0.01 0.01 0.01 0.00 0.00 0.00 0.00 0.00 0.00 0.00 0.00 0.00 0.00 0.00 0.00 0.00
0.00 0.00 0.00 0.00 0.00 0.00 0.00 0.00 0.00 0.00 0.00 0.00 0.00 0.00 0.00 0.00 0.00 0.00 0.00 0.00 0.00 0.00 0.00 0.00 0.00 0.01 0.01 0.01 0.01 0.01 0.00 0.00 0.00 0.00 0.00 0.00 0.00 0.00 0.00 0.00 0.00 0.00 0.00 0.00
0.00 0.00 0.00 0.00 0.00 0.00 0.00 0.00 0.00 0.00 0.00 0.00 0.00 0.00 0.00 0.00 0.00 0.00 0.00 0.00 0.00 0.00 0.00 0.01 0.01 0.01 0.01 0.01 0.01 0.01 0.00 0.00 0.00 0.00 0.00 0.00 0.00 0.00 0.00 0.00 0.00 0.00 0.00 0.00
0.00 0.00 0.00 0.00 0.00 0.00 0.00 0.00 0.00 0.00 0.00 0.00 0.00 0.00 0.00 0.00 0.00 0.00 0.00 0.00 0.00 0.01 0.01 0.01 0.01 0.01 0.01 0.01 0.01 0.01 0.00 0.00 0.00 0.00 0.00 0.00 0.00 0.00 0.00 0.00 0.00 0.00 0.00 0.00
0.00 0.00 0.00 0.00 0.00 0.00 0.00 0.00 0.00 0.00 0.00 0.00 0.00 0.00 0.00 0.00 0.00 0.00 0.00 0.00 0.01 0.01 0.01 0.01 0.01 0.01 0.01 0.01 0.01 0.00 0.00 0.00 0.00 0.00 0.00 0.00 0.00 0.00 0.00 0.00 0.00 0.00 0.00 0.00
MSLP
1021.40 1021.32 1021.16 1020.93 1020.61 1020.19 1019.64 1018.97 1018.19 1017.33 1016.42 1015.54 1014.75 1014.09 1013.62 1013.35 1013.26 1013.35 1013.55 1013.83 1014.12 1014.39 1014.62 1014.79 1014.91 1015.00 1015.06 1015.12 1015.17 1015.21 1015.23 1015.20 1015.12 1014.97 1014.73 1014.42 1014.05 1013.63 1013.19 1012.75 1012.32 1011.92 1011.55 1011.23
1021.59 1021.36 1021.02 1020.58 1020.05 1019.43 1018.73 1017.98 1017.19 1016.38 1015.60 1014.88 1014.25 1013.76 1013.41 1013.21 1013.14 1013.18 1013.30 1013.47 1013.65 1013.82 1013.98 1014.11 1014.23 1014.35 1014.47 1014.59 1014.72 1014.83 1014.92 1014.96 1014.94 1014.85 1014.69 1014.47 1014.20 1013.91 1013.60 1013.29 1013.00 1012.72 1012.47 1012.25
1021.64 1021.26 1020.74 1020.11 1019.39 1018.62 1017.83 1017.03 1016.26 1015.53 1014.88 1014.32 1013.86 1013.52 1013.28 1013.14 1013.08 1013.09 1013.13 1013.19 1013.27 1013.35 1013.43 1013.52 1013.62 1013.75 1013.90 1014.07 1014.24 1014.40 1014.53 1014.63 1014.66 1014.64 1014.57 1014.45 1014.29 1014.13 1013.95 1013.77 1013.61 1013.45 1013.30 1013.15
1021.51 1020.98 1020.31 1019.53 1018.68 1017.81 1016.96 1016.16 1015.44 1014.81 1014.29 1013.88 1013.57 1013.35 1013.21 1013.12 1013.07 1013.03 1013.01 1012.99 1012.97 1012.97 1012.99 1013.03 1013.11 1013.23 1013.38 1013.56 1013.76 1013.94 1014.10 1014.23 1014.32 1014.36 1014.37 1014.35 1014.32 1014.28 1014.23 1014.18 1014.13 1014.06 1013.99 1013.91
1021.20 1020.54 1019.75 1018.86 1017.94 1017.02 1016.16 1015.39 1014.74 1014.21 1013.81 1013.53 1013.34 1013.22 1013.14 1013.09 1013.04 1012.98 1012.91 1012.83 1012.75 1012.68 1012.65 1012.65 1012.70 1012.80 1012.94 1013.10 1013.28 1013.46 1013.63 1013.77 1013.90 1014.00 1014.09 1014.18 1014.26 1014.33 1014.41 1014.47 1014.52 1014.54 1014.53 1014.48
1020.69 1019.94 1019.07 1018.14 1017.19 1016.28 1015.45 1014.74 1014.17 1013.74 1013.43 1013.24 1013.13 1013.08 1013.05 1013.01 1012.96 1012.88 1012.78 1012.66 1012.55 1012.45 1012.39 1012.36 1012.38 1012.44 1012.54 1012.67 1012.81 1012.96 1013.11 1013.25 1013.40 1013.55 1013.71 1013.89 1014.07 1014.26 1014.45 1014.61 1014.74 1014.83 1014.87 1014.85
1020.01 1019.20 1018.30 1017.37 1016.44 1015.58 1014.82 1014.19 1013.70 1013.35 1013.12 1012.98 1012.92 1012.90 1012.88 1012.85 1012.79 1012.71 1012.60 1012.48 1012.35 1012.25 1012.17 1012.12 1012.11 1012.13 1012.18 1012.25 1012.33 1012.43 1012.54 1012.66 1012.81 1012.99 1013.21 1013.46 1013.74 1014.03 1014.30 1014.56 1014.76 1014.91 1014.98 1015.00
1019.17 1018.33 1017.45 1016.56 1015.71 1014.93 1014.26 1013.71 1013.29 1013.00 1012.81 1012.71 1012.66 1012.64 1012.62 1012.59 1012.53 1012.45 1012.35 1012.24 1012.13 1012.04 1011.96 1011.90 1011.86 1011.84 1011.83 1011.82 1011.83 1011.85 1011.90 1011.99 1012.13 1012.32 1012.58 1012.89 1013.23 1013.60 1013.95 1014.27 1014.54 1014.74 1014.86 1014.91
1018.20 1017.39 1016.56 1015.75 1014.99 1014.31 1013.73 1013.26 1012.90 1012.65 1012.48 1012.38 1012.32 1012.28 1012.25 1012.21 1012.16 1012.09 1012.02 1011.95 1011.88 1011.81 1011.74 1011.68 1011.61 1011.54 1011.46 1011.37 1011.30 1011.24 1011.22 1011.26 1011.37 1011.56 1011.83 1012.17 1012.57 1012.98 1013.39 1013.77 1014.08 1014.32 1014.49 1014.58
1017.17 1016.40 1015.65 1014.93 1014.27 1013.69 1013.20 1012.80 1012.48 1012.25 1012.08 1011.96 1011.88 1011.82 1011.77 1011.73 1011.69 1011.66 1011.63 1011.60 1011.58 1011.54 1011.50 1011.43 1011.34 1011.22 1011.07 1010.91 1010.75 1010.61 1010.52 1010.51 1010.58 1010.75 1011.01 1011.37 1011.78 1012.21 1012.65 1013.06 1013.41 1013.68 1013.89 1014.03
1016.12 1015.42 1014.76 1014.14 1013.58 1013.08 1012.66 1012.30 1012.01 1011.77 1011.59 1011.44 1011.33 1011.25 1011.20 1011.17 1011.16 1011.17 1011.19 1011.22 1011.25 1011.26 1011.23 1011.16 1011.05 1010.88 1010.67 1010.44 1010.20 1009.99 1009.84 1009.77 1009.80 1009.94 1010.18 1010.52 1010.93 1011.36 1011.80 1012.21 1012.57 1012.86 1013.10 1013.29
1015.15 1014.52 1013.93 1013.40 1012.92 1012.49 1012.11 1011.77 1011.48 1011.23 1011.01 1010.84 1010.71 1010.61 1010.56 1010.56 1010.59 1010.65 1010.74 1010.83 1010.90 1010.95 1010.94 1010.87 1010.74 1010.53 1010.27 1009.98 1009.68 1009.42 1009.22 1009.10 1009.09 1009.20 1009.41 1009.72 1010.09 1010.49 1010.90 1011.28 1011.63 1011.93 1012.18 1012.40
1014.29 1013.74 1013.23 1012.77 1012.34 1011.95 1011.58 1011.24 1010.93 1010.65 1010.41 1010.20 1010.05 1009.96 1009.92 1009.95 1010.03 1010.15 1010.29 1010.44 1010.56 1010.63 1010.64 1010.57 1010.41 1010.18 1009.88 1009.55 1009.21 1008.91 1008.68 1008.53 1008.49 1008.56 1008.73 1008.99 1009.31 1009.67 1010.02 1010.36 1010.67 1010.95 1011.20 1011.45
1013.61 1013.13 1012.68 1012.27 1011.87 1011.49 1011.12 1010.76 1010.41 1010.10 1009.82 1009.59 1009.43 1009.34 1009.33 1009.39 1009.52 1009.69 1009.88 1010.07 1010.22 1010.31 1010.33 1010.25 1010.07 1009.81 1009.50 1009.14 1008.79 1008.48 1008.22 1008.06 1008.00 1008.04 1008.17 1008.38 1008.64 1008.92 1009.21 1009.48 1009.74 1009.99 1010.23 1010.48
1013.13 1012.71 1012.32 1011.93 1011.55 1011.16 1010.77 1010.37 1009.99 1009.63 1009.32 1009.07 1008.90 1008.82 1008.83 1008.92 1009.08 1009.29 1009.52 1009.73 1009.89 1009.99 1009.99 1009.90 1009.71 1009.44 1009.11 1008.75 1008.40 1008.09 1007.84 1007.67 1007.60 1007.61 1007.71 1007.86 1008.05 1008.26 1008.47 1008.68 1008.88 1009.08 1009.29 1009.54
1012.85 1012.49 1012.14 1011.78 1011.39 1010.99 1010.56 1010.12 1009.69 1009.30 1008.95 1008.68 1008.51 1008.43 1008.45 1008.56 1008.74 1008.96 1009.20 1009.41 1009.56 1009.64 1009.63 1009.51 1009.31 1009.03 1008.70 1008.35 1008.01 1007.72 1007.48 1007.32 1007.24 1007.24 1007.29 1007.39 1007.52 1007.66 1007.80 1007.94 1008.08 1008.24 1008.44 1008.69
1012.72 1012.43 1012.12 1011.77 1011.39 1010.96 1010.50 1010.02 1009.55 1009.12 1008.74 1008.45 1008.26 1008.18 1008.20 1008.31 1008.48 1008.69 1008.91 1009.09 1009.22 1009.26 1009.22 1009.08 1008.86 1008.57 1008.25 1007.92 1007.60 1007.33 1007.12 1006.97 1006.89 1006.86 1006.89 1006.94 1007.01 1007.08 1007.16 1007.25 1007.35 1007.49 1007.68 1007.93
1012.71 1012.47 1012.20 1011.87 1011.49 1011.04 1010.55 1010.05 1009.55 1009.08 1008.68 1008.36 1008.15 1008.05 1008.04 1008.13 1008.27 1008.44 1008.61 1008.75 1008.83 1008.83 1008.75 1008.58 1008.35 1008.06 1007.75 1007.44 1007.15 1006.90 1006.71 1006.57 1006.49 1006.45 1006.45 1006.46 1006.48 1006.51 1006.55 1006.60 1006.69 1006.82 1007.01 1007.28
1012.74 1012.55 1012.31 1012.01 1011.62 1011.17 1010.66 1010.13 1009.61 1009.12 1008.69 1008.35 1008.11 1007.97 1007.93 1007.96 1008.05 1008.17 1008.28 1008.36 1008.38 1008.33 1008.21 1008.02 1007.78 1007.50 1007.20 1006.91 1006.65 1006.43 1006.26 1006.13 1006.04 1005.99 1005.96 1005.94 1005.93 1005.93 1005.95 1005.99 1006.08 1006.23 1006.45 1006.76
1012.73 1012.59 1012.37 1012.08 1011.70 1011.25 1010.74 1010.20 1009.66 1009.16 1008.71 1008.34 1008.06 1007.88 1007.78 1007.76 1007.78 1007.83 1007.87 1007.88 1007.85 1007.76 1007.61 1007.40 1007.16 1006.89 1006.62 1006.36 1006.13 1005.93 1005.77 1005.65 1005.56 1005.49 1005.45 1005.41 1005.38 1005.37 1005.38 1005.44 1005.55 1005.74 1006.01 1006.36
1012.62 1012.50 1012.30 1012.02 1011.65 1011.20 1010.70 1010.16 1009.62 1009.11 1008.64 1008.24 1007.93 1007.70 1007.55 1007.46 1007.41 1007.39 1007.36 1007.32 1007.23 1007.11 1006.94 1006.74 1006.51 1006.27 1006.02 1005.80 1005.60 1005.43 1005.29 1005.17 1005.08 1005.01 1004.95 1004.90 1004.87 1004.86 1004.89 1004.98 1005.13 1005.37 1005.69 1006.09
1012.37 1012.25 1012.05 1011.78 1011.41 1010.98 1010.48 1009.96 1009.42 1008.91 1008.43 1008.02 1007.67 1007.40 1007.19 1007.04 1006.92 1006.83 1006.75 1006.66 1006.54 1006.40 1006.23 1006.05 1005.85 1005.64 1005.45 1005.26 1005.10 1004.96 1004.84 1004.74 1004.66 1004.58 1004.52 1004.48 1004.45 1004.47 1004.53 1004.65 1004.85 1005.14 1005.51 1005.97
1011.94 1011.81 1011.60 1011.32 1010.97 1010.54 1010.07 1009.56 1009.04 1008.54 1008.06 1007.63 1007.26 1006.94 1006.69 1006.48 1006.32 1006.17 1006.05 1005.92 1005.79 1005.65 1005.51 1005.35 1005.20 1005.04 1004.90 1004.77 1004.66 1004.56 1004.47 1004.39 1004.32 1004.26 1004.21 1004.18 1004.18 1004.22 1004.32 1004.49 1004.74 1005.07 1005.49 1005.98
1011.33 1011.16 1010.94 1010.66 1010.31 1009.91 1009.46 1008.98 1008.48 1007.99 1007.53 1007.09 1006.70 1006.36 1006.07 1005.82 1005.61 1005.43 1005.28 1005.14 1005.01 1004.89 1004.78 1004.67 1004.57 1004.48 1004.41 1004.34 1004.28 1004.23 1004.18 1004.14 1004.10 1004.07 1004.05 1004.05 1004.08 1004.16 1004.30 1004.52 1004.80 1005.17 1005.62 1006.13
1010.53 1010.34 1010.10 1009.82 1009.49 1009.10 1008.69 1008.24 1007.78 1007.32 1006.87 1006.44 1006.04 1005.68 1005.37 1005.09 1004.85 1004.65 1004.48 1004.34 1004.23 1004.13 1004.06 1004.01 1003.98 1003.96 1003.96 1003.96 1003.97 1003.98 1003.99 1004.00 1004.00 1004.01 1004.04 1004.08 1004.16 1004.28 1004.46 1004.71 1005.04 1005.43 1005.89 1006.40
1009.58 1009.37 1009.12 1008.84 1008.53 1008.18 1007.80 1007.39 1006.97 1006.54 1006.11 1005.70 1005.30 1004.94 1004.61 1004.31 1004.06 1003.85 1003.68 1003.55 1003.46 1003.40 1003.38 1003.39 1003.43 1003.48 1003.55 1003.63 1003.72 1003.80 1003.87 1003.94 1004.01 1004.08 1004.16 1004.25 1004.38 1004.55 1004.77 1005.06 1005.40 1005.80 1006.25 1006.74
1008.49 1008.27 1008.03 1007.77 1007.48 1007.17 1006.84 1006.47 1006.09 1005.70 1005.29 1004.90 1004.51 1004.14 1003.81 1003.51 1003.25 1003.04 1002.88 1002.77 1002.71 1002.70 1002.73 1002.80 1002.91 1003.04 1003.19 1003.35 1003.51 1003.66 1003.81 1003.96 1004.09 1004.23 1004.37 1004.53 1004.71 1004.93 1005.18 1005.49 1005.84 1006.24 1006.67 1007.12
Thickness
5509 5514 5512 5514 5518 5514 5509 5510 5510 5524 5526 5549 5548 5544 5544 5543 5540 5537 5535 5533 5530 5527 5523 5520 5517 5515 5515 5514 5513 5512 5511 5511 5510 5509 5508 5508 5508 5507 5507 5507 5507 5507 5507 5506
5506 5514 5510 5512 5522 5518 5517 5517 5519 5524 5536 5552 5546 5542 5540 5539 5538 5537 5536 5534 5531 5528 5524 5520 5517 5515 5513 5511 5510 5509 5508 5507 5506 5505 5504 5503 5503 5503 5502 5502 5501 5501 5500 5499
5502 5505 5510 5522 5537 5530 5524 5524 5524 5528 5545 5548 5544 5543 5542 5542 5539 5538 5538 5535 5532 5528 5525 5522 5518 5515 5512 5510 5507 5506 5505 5504 5502 5501 5500 5499 5498 5497 5497 5496 5495 5494 5493 5492
5495 5499 5519 5547 5548 5539 5533 5534 5531 5536 5542 5541 5542 5542 5540 5540 5538 5537 5537 5535 5532 5528 5524 5521 5517 5514 5511 5507 5505 5503 5502 5501 5499 5498 5496 5495 5493 5492 5491 5489 5488 5487 5486 5485
5489 5487 5507 5536 5541 5535 5531 5538 5541 5538 5541 5539 5537 5536 5540 5543 5540 5538 5537 5534 5531 5527 5523 5519 5515 5512 5508 5504 5502 5500 5499 5498 5496 5494 5493 5491 5489 5487 5485 5483 5482 5481 5479 5478
5486 5491 5513 5543 5543 5536 5535 5537 5547 5539 5537 5534 5532 5529 5540 5544 5539 5536 5534 5531 5528 5524 5520 5516 5513 5509 5505 5502 5499 5498 5498 5496 5494 5492 5489 5487 5485 5482 5480 5478 5476 5474 5472 5471
5485 5485 5508 5528 5531 5531 5529 5542 5546 5538 5535 5530 5525 5532 5537 5536 5534 5532 5530 5527 5524 5520 5517 5515 5511 5507 5503 5501 5499 5499 5496 5493 5491 5488 5486 5483 5480 5478 5475 5472 5470 5467 5465 5463
5481 5482 5508 5530 5521 5523 5532 5535 5535 5534 5532 5527 5525 5527 5527 5528 5528 5526 5525 5523 5520 5516 5514 5511 5507 5504 5501 5500 5500 5497 5493 5490 5487 5485 5482 5480 5476 5473 5469 5466 5463 5459 5456 5454
5492 5513 5524 5520 5520 5524 5522 5522 5524 5524 5524 5522 5521 5522 5524 5524 5523 5521 5520 5518 5516 5513 5510 5507 5504 5501 5499 5499 5496 5493 5489 5486 5483 5480 5477 5475 5471 5468 5463 5459 5456 5452 5449 5447
5483 5504 5512 5511 5510 5512 5512 5513 5516 5515 5514 5514 5515 5518 5518 5518 5517 5515 5514 5512 5510 5508 5506 5504 5501 5498 5497 5496 5492 5488 5485 5482 5479 5475 5472 5468 5466 5463 5458 5454 5450 5447 5443 5441
5476 5495 5498 5509 5509 5511 5510 5509 5507 5508 5508 5508 5510 5512 5513 5513 5512 5511 5510 5508 5505 5503 5503 5502 5498 5495 5493 5491 5487 5483 5481 5478 5474 5471 5467 5463 5460 5457 5453 5450 5447 5444 5440 5435
5492 5501 5494 5503 5508 5505 5502 5503 5504 5503 5505 5505 5504 5506 5507 5508 5508 5506 5504 5502 5500 5498 5498 5497 5494 5491 5489 5487 5483 5479 5476 5473 5469 5465 5461 5457 5453 5449 5447 5444 5442 5439 5435 5430
5491 5493 5489 5493 5495 5495 5493 5496 5497 5497 5498 5500 5501 5500 5501 5501 5501 5499 5498 5496 5495 5495 5494 5492 5489 5487 5485 5482 5479 5476 5473 5469 5464 5460 5456 5451 5447 5443 5439 5436 5434 5431 5428 5424
5478 5475 5477 5484 5485 5486 5485 5487 5488 5489 5490 5491 5493 5493 5493 5493 5493 5492 5492 5492 5491 5489 5487 5485 5484 5483 5481 5477 5474 5471 5467 5464 5460 5455 5450 5446 5442 5437 5433 5428 5424 5421 5419 5416
5466 5464 5468 5473 5473 5474 5474 5474 5475 5479 5481 5483 5483 5484 5484 5484 5486 5486 5486 5485 5483 5481 5480 5478 5477 5477 5474 5471 5468 5465 5461 5457 5453 5448 5444 5440 5435 5431 5426 5422 5418 5413 5408 5405
5455 5454 5454 5456 5460 5462 5462 5463 5464 5470 5472 5473 5474 5475 5476 5477 5478 5478 5477 5476 5474 5475 5475 5473 5472 5471 5468 5464 5461 5457 5454 5452 5447 5441 5436 5432 5428 5423 5419 5414 5410 5405 5401 5397
5440 5443 5445 5445 5448 5450 5452 5454 5456 5460 5461 5463 5465 5466 5466 5466 5467 5468 5468 5468 5467 5468 5467 5466 5466 5464 5460 5457 5453 5450 5446 5443 5440 5435 5430 5425 5421 5417 5412 5408 5403 5399 5394 5390
5433 5435 5435 5435 5437 5440 5443 5445 5447 5449 5451 5454 5456 5456 5456 5456 5458 5460 5460 5459 5457 5458 5459 5459 5458 5455 5452 5449 5446 5442 5438 5434 5431 5426 5422 5418 5414 5410 5405 5401 5397 5392 5387 5382
5424 5424 5425 5426 5427 5428 5431 5434 5437 5439 5441 5442 5443 5445 5446 5447 5448 5449 5448 5447 5447 5449 5452 5451 5450 5446 5444 5441 5438 5434 5430 5426 5423 5418 5414 5411 5407 5402 5397 5393 5389 5385 5380 5375
5413 5413 5414 5415 5417 5418 5420 5423 5425 5428 5430 5431 5433 5434 5435 5437 5437 5437 5437 5438 5441 5443 5443 5441 5440 5438 5435 5432 5430 5425 5422 5418 5415 5411 5406 5403 5399 5395 5391 5387 5382 5378 5373 5367
5400 5402 5404 5405 5408 5410 5411 5413 5414 5417 5420 5421 5422 5425 5426 5427 5427 5427 5427 5430 5434 5433 5433 5433 5430 5428 5426 5424 5421 5417 5414 5410 5406 5403 5399 5396 5392 5388 5384 5380 5375 5371 5366 5361
5390 5391 5394 5395 5397 5400 5403 5404 5405 5407 5409 5411 5412 5414 5415 5416 5417 5417 5419 5422 5425 5425 5423 5422 5421 5420 5418 5416 5412 5409 5405 5402 5398 5395 5391 5388 5385 5381 5377 5373 5368 5364 5359 5353
5380 5382 5384 5386 5387 5390 5393 5394 5396 5398 5399 5402 5403 5404 5405 5407 5408 5408 5412 5414 5414 5415 5415 5414 5414 5413 5411 5407 5404 5401 5398 5395 5391 5388 5384 5381 5378 5374 5370 5365 5361 5356 5351 5345
5372 5374 5375 5376 5377 5378 5382 5387 5388 5389 5390 5391 5393 5395 5395 5397 5400 5402 5403 5405 5406 5406 5405 5406 5406 5405 5403 5398 5396 5393 5390 5387 5384 5380 5377 5373 5370 5366 5362 5358 5353 5349 5344 5338
5361 5363 5364 5365 5367 5371 5374 5376 5377 5379 5380 5382 5385 5387 5388 5389 5391 5394 5394 5395 5397 5397 5396 5397 5397 5396 5393 5390 5388 5386 5383 5380 5377 5373 5369 5366 5362 5358 5354 5350 5346 5341 5336 5331
5352 5355 5358 5359 5361 5363 5364 5365 5367 5370 5372 5375 5379 5381 5382 5382 5383 5384 5384 5385 5386 5387 5387 5387 5386 5386 5384 5382 5380 5378 5376 5373 5370 5366 5362 5359 5355 5351 5347 5343 5339 5334 5329 5324
5343 5346 5348 5351 5354 5355 5355 5356 5358 5362 5365 5367 5370 5373 5374 5375 5375 5376 5376 5376 5376 5376 5377 5377 5377 5376 5375 5374 5372 5370 5368 5365 5362 5359 5355 5352 5348 5344 5340 5336 5332 5327 5322 5318